Location: Wingville
(42.9917°N, 90.4915°W)
Time: 09:17:55
(UTC+00:00)

SO-50 - Visible Passes

Search period start: 04 July 2022 00:00
Search period end: 14 July 2022 00:00
Orbit: 586 x 697 km, 64.6° (Epoch: 03 July)

Date Brightness Start Highest point End Pass type
(mag) Time Alt. Az. Time Alt. Az. Time Alt. Az.
04 Jul ? 04:47:10 27° E 04:47:10 27° E 04:50:25 10° NE visible
04 Jul ? 06:24:43 27° W 06:26:33 38° NW 06:31:06 10° NNE visible
05 Jul ? 05:10:20 68° SE 05:10:31 69° ESE 05:15:21 10° NE visible
05 Jul ? 06:47:53 10° W 06:51:27 21° NW 06:55:07 10° N visible
06 Jul ? 03:55:51 19° E 03:55:51 19° E 03:58:29 10° ENE visible
06 Jul ? 05:33:23 36° WSW 05:35:02 54° NW 05:39:49 10° NNE visible
06 Jul ? 07:14:36 10° NW 07:16:35 12° NNW 07:18:36 10° N visible
07 Jul ? 04:18:45 44° SE 04:19:11 46° ESE 04:23:47 10° NE visible
07 Jul ? 05:56:16 12° W 05:59:48 27° NW 06:03:58 10° NNE visible
08 Jul ? 03:03:55 13° ESE 03:03:55 13° ESE 03:06:03 10° E visible
08 Jul ? 04:41:25 32° SW 04:43:34 78° NW 04:48:27 10° NNE visible
08 Jul ? 06:21:55 10° WNW 06:24:50 16° NW 06:27:47 10° N visible
09 Jul ? 03:26:17 24° SSE 03:27:54 31° ESE 03:32:06 10° NE visible
09 Jul ? 05:03:50 10° WSW 05:08:13 37° NW 05:12:45 10° NNE visible
10 Jul ? 03:48:04 13° SSW 03:52:10 72° ESE 03:57:00 10° NE visible
10 Jul ? 05:29:34 10° W 05:33:07 20° NW 05:36:44 10° N visible
11 Jul ? 02:33:12 10° SSE 02:36:39 21° ESE 02:40:11 10° ENE visible
11 Jul ? 04:12:05 10° SW 04:16:41 52° NW 04:21:27 10° NNE visible
11 Jul ? 05:56:22 10° NW 05:58:16 12° NNW 06:00:11 10° N visible
12 Jul ? 02:56:20 10° S 03:00:48 47° ESE 03:05:27 10° NE visible
12 Jul ? 04:37:26 10° W 04:41:28 27° NW 04:45:35 10° NNE visible
12 Jul ? 09:47:25 10° N 09:49:41 13° NNE 09:51:56 10° ENE visible
13 Jul ? 03:20:31 10° SW 03:25:13 76° NW 03:30:05 10° NNE visible
13 Jul ? 05:03:38 10° WNW 05:06:29 15° NW 05:09:22 10° N visible
